Location: B?jaj?g
(11.7167°N, 92.6667°E)
Time: 04:27:29
(UTC+00:00)

Iridium 4 Rocket - Pass Details

Date: 18 September 2020
Orbit: 585 x 904 km, 86.9° (Epoch: 20 October)

Event Time Altitude Azimuth Distance (km) Brightness Sun altitude
Rises 12:32:10 0° 184° (S) 2,874 6.5 -11.6°
Reaches altitude 10° 12:34:19 10° 186° (S) 2,001 5.7 -12.2°
Maximum altitude 12:38:41 71° 270° (W) 701 3.5 -13.2°
Drops below altitude 10° 12:43:28 10° 354° (N) 2,177 6.0 -14.4°
Sets 12:45:53 0° 357° (N) 3,150 6.8 -15.0°
